Regional Weather Roundup
Issued by NWS

Home | Current Version | Previous Version | Text Only | Print | Product List | Glossary Off
Versions: 1 2 3 4 5 6 7 8 9 10 11 12 13 14 15 16 17 18 19 20 21 22 23 24 25 26 27

000
ASUS45 KBOU 200607
RWRCO

WEATHER ROUNDUP FOR COLORADO
NATIONAL WEATHER SERVICE DENVER/BOULDER CO
1100 PM MST SUN FEB 19 2017

NOTE: "FAIR" INDICATES FEW OR NO CLOUDS BELOW 12000 FEET WITH NO
SIGNIFICANT WEATHER AND/OR OBSTRUCTIONS TO VISIBILITY.

COZ001>005-013-030-031-200700-
...NORTHWEST COLORADO...

CITY           SKY/WX    TMP DP  RH WIND       PRES   REMARKS
CRAIG          FAIR      31  28  89 SE5       29.97R WCI  26
HAYDEN         MOCLDY    30  25  80 W3        29.96R
MEEKER         MOCLDY    33  31  92 CALM      29.98R
MOUNT WERNER   NOT AVBL
STEAMBOAT SPGS CLOUDY    30  29  95 SW3       29.95R
WALDEN         NOT AVBL
$$

COZ006>008-011-200700-
...WEST CENTRAL VALLEYS...

CITY           SKY/WX    TMP DP  RH WIND       PRES   REMARKS
GRAND JUNCTION CLOUDY    40  40 100 SW3       29.98R
MONTROSE       FAIR      36  36 100 S3        30.00R
EAGLE          CLOUDY    35  32  88 NW6       29.97R WCI  30
RIFLE          CLOUDY    40  37  89 W3        29.97R
DELTA          FAIR      40  39  96 CALM      29.98R
NUCLA          CLOUDY    36  34  93 E7        30.04R
$$

COZ017>023-064>068-200700-
...SOUTHWEST COLORADO...

CITY           SKY/WX    TMP DP  RH WIND       PRES   REMARKS
DURANGO        CLOUDY    34  31  88 W6        29.98R WCI  29
CORTEZ         CLOUDY    36  35  96 NE5       30.01R
PAGOSA SPRINGS CLOUDY    32  32 100 CALM      29.99R
TELLURIDE      NOT AVBL
WOLF CREEK PAS SNOW      18  18 100 S16G22    30.00R VSB 1/4 WCI   3
$$

COZ009-010-012-014-032>034-037-058>063-200700-
...CENTRAL COLORADO...

CITY           SKY/WX    TMP DP  RH WIND       PRES   REMARKS
ASPEN          MOCLDY    31  30  96 NW6       29.93R WCI  25
BUENA VISTA    FAIR      33  23  66 NW9       29.84S WCI  26
COPPER MTN     NOT AVBL
BERTHOUD PASS  HVY SNOW  14   5  67 MISG      29.80F VSB<1/4
COTTONWOOD PAS CLOUDY    32  19  59 W18G33    29.84F WCI  20
GUNNISON       LGT SNOW  31  30  96 W8        29.94R FOG     WCI  23
KREMMLING      CLOUDY    36  30  80 CALM      29.94R
LEADVILLE      LGT SNOW  24  21  88 NE6       29.89R VSB 1   WCI  17
MONARCH PASS   FOG       19  18  93 W44G51    29.94S VSB<1/4 WCI  -2
SALIDA         FAIR      39  21  47 W17G31    29.90S
SUNLIGHT       NOT AVBL
WILKERSON PASS CLOUDY    23  18  80 W9G16     29.87R WCI  13
$$

COZ069>075-200700-
...SAN LUIS VALLEY/SANGRE DE CRISTO MOUNTAINS...

CITY           SKY/WX    TMP DP  RH WIND       PRES   REMARKS
ALAMOSA        CLOUDY    31  25  78 CALM      29.89R
LA VETA PASS   CLOUDY    27  19  74 NE25G38   29.85R WCI  11
SAGUACHE       FAIR      32  23  69 W8        29.88S WCI  25
$$

COZ035-036-038>040-200700-
...NORTHERN COLORADO FRONT RANGE...

CITY           SKY/WX    TMP DP  RH WIND       PRES   REMARKS
DENVER INTL AP LGT RAIN  46  37  71 W7        29.73R
DMNS CITY PARK   N/A     49  26  41 W6        29.72S
AURORA         MOCLDY    44  36  72 SW3       29.73S
FRONT RANGE AP DRIZZLE   45  37  76 W7        29.74R
ERIE MUNI ARPT MOCLDY    46  37  70 CALM      29.72R
BOULDER MUN AP FAIR      46  32  57 E6        29.72R
CENTENNIAL     LGT RAIN  47  27  45 NW14      29.73R
BROOMFIELD     FAIR      45  28  53 W5        29.74R
FORT COLLINS   FAIR      49  22  34 NW30G41   29.73R
LONGMONT       FAIR      47  37  67 E3        29.74R
$$

COZ041-046-047-076>085-087-088-200700-
...PIKES PEAK/PALMER DIVIDE AND SOUTHERN FOOTHILLS...

CITY           SKY/WX    TMP DP  RH WIND       PRES   REMARKS
COLO. SPRINGS  FAIR      43  25  49 NW14      29.73R
A. F. ACADEMY  MOCLDY    42  28  58 NW15G30   29.74R
SCHRIEVER AFB  FAIR      42  26  52 NW23G36   29.72R
ELLICOTT       FAIR     N/A N/A N/A N7        29.71R
FALCON         FAIR      40  26  57 NW18G28   29.73R
FORT CARSON    FAIR      46  25  42 NW24G33   29.69R
LIMON          FAIR      42  33  70 NW12      29.69R
MONUMENT HILL  FAIR      32  28  86 NW8       29.77S WCI  25
TRINIDAD       FAIR      40  18  41 W12       29.76R
$$

COZ042>045-048>051-090-091-200700-
...NORTHEAST COLORADO...

CITY           SKY/WX    TMP DP  RH WIND       PRES   REMARKS
GREELEY ARPT   FAIR      48  28  46 NW28G37   29.73R
AKRON          FAIR      47  33  58 NW23G37   29.65R
BURLINGTON     FAIR      47  32  56 S16       29.66S
WRAY           NOT AVBL
STERLING       FAIR      48  34  57 N18       29.64R
HOLYOKE        FAIR      54  32  43 S12       29.63R
FORT MORGAN    MOCLDY    49  35  56 NW23      29.69R
$$

COZ086-089-092>099-200700-
...SOUTHEAST COLORADO...

CITY           SKY/WX    TMP DP  RH WIND       PRES   REMARKS
PUEBLO         FAIR      50  23  34 W17G29    29.69R
LA JUNTA       FAIR      47  22  37 SW17      29.67R
LAMAR          FAIR      46  28  49 S10       29.66S
SPRINGFIELD      N/A     42  29  59 S16       29.71S
$$




USA.gov is the U.S. government's official web portal to all federal, state and local government web resources and services.